Weather History for KASX - November, 2013

Change the Weather History Date:

Monday, November 11, 2013

  Actual Average Record
Temperature  
Mean Temperature 26 °F -  
Max Temperature 33 °F 39 °F 62 °F (1961)
Min Temperature 18 °F 24 °F -2 °F (1986)
Degree Days  
Heating Degree Days 40    
Moisture  
Dew Point 16 °F    
Average Humidity 69    
Maximum Humidity 93    
Minimum Humidity 47    
Precipitation  
Precipitation 0.02 in - - ()
Sea Level Pressure  
Sea Level Pressure 30.36 in    
Wind  
Wind Speed 12 mph (NW)    
Max Wind Speed 17 mph    
Max Gust Speed 26 mph    
Visibility 9 miles    
Events Snow    
Averages and records for this station are not official NWS values.
T = Trace of Precipitation, MM = Missing Value Source: NWS Daily Summary

Daily Weather History Graph

Daily Weather History Graph

Search for Another Location

Airport or City:

Trip Planner

Search our weather history database for the weather conditions in past years. The results will help you decide how hot, cold, wet, or windy it might be!

Date:

Astronomy

Nov. 11, 2013 Rise Set
Actual Time 7:00 AM CST 4:34 PM CST
Civil Twilight 6:27 AM CST 5:07 PM CST
Nautical Twilight 5:51 AM CST 5:43 PM CST
Astronomical Twilight 5:16 AM CST 6:18 PM CST
Moon 1:34 PM CST (11/11) 12:24 AM CST (11/11)
Length of Visible Light 10h 39m
Length of Day
9h 34m
Waxing Gibbous, 66% of the Moon is Illuminated
Nov 11
Waxing Gibbous
Nov 17
Full
Nov 25
Last Quarter
Dec 2
New
Dec 9
First Quarter

Hourly Weather History & Observations

Time (CST) Temp. Windchill Dew Point Humidity Pressure Visibility Wind Dir Wind Speed Gust Speed Precip Events Conditions
12:01 AM 33.8 °F 25.3 °F 32.0 °F 93% 30.08 in 4.0 mi NW 11.5 mph 20.7 mph 0.00 in Snow Light Snow
12:03 AM 33.8 °F 23.5 °F 30.2 °F 87% 30.08 in 1.8 mi NNW 16.1 mph 24.2 mph 0.00 in Snow Light Snow
12:12 AM 32.0 °F 22.1 °F 30.2 °F 93% 30.08 in 1.2 mi NNW 13.8 mph - 0.01 in Snow Light Snow
12:15 AM 32.0 °F 23.0 °F 28.4 °F 87% 30.08 in 3.0 mi NNW 11.5 mph - 0.01 in Snow Light Snow
12:36 AM 30.2 °F 19.3 °F 26.6 °F 86% 30.10 in 3.0 mi NW 15.0 mph 24.2 mph 0.02 in Snow Light Snow
12:53 AM 30.0 °F 20.0 °F 24.1 °F 79% 30.14 in 7.0 mi NNW 12.7 mph 25.3 mph 0.02 in Snow Light Snow
1:00 AM 28.4 °F 20.4 °F 24.8 °F 86% 30.12 in 9.0 mi NNW 8.1 mph 19.6 mph 0.00 in   Overcast
1:34 AM 28.4 °F 18.5 °F 23.0 °F 80% 30.14 in 10.0 mi NNW 11.5 mph - 0.00 in   Overcast
1:53 AM 28.0 °F 15.7 °F 19.9 °F 72% 30.18 in 10.0 mi North 17.3 mph 24.2 mph 0.00 in   Overcast
2:53 AM 25.0 °F 13.6 °F 18.0 °F 75% 30.22 in 10.0 mi North 12.7 mph 24.2 mph N/A   Overcast
3:37 AM 23.0 °F 10.6 °F 15.8 °F 74% 30.22 in 10.0 mi North 13.8 mph 24.2 mph 0.00 in   Mostly Cloudy
3:53 AM 21.9 °F 9.8 °F 14.0 °F 72% 30.27 in 10.0 mi North 12.7 mph 20.7 mph 0.00 in   Scattered Clouds
4:04 AM 21.2 °F 6.8 °F 15.8 °F 80% 30.23 in 9.0 mi North 17.3 mph - 0.00 in Snow Light Snow
4:53 AM 21.0 °F 8.1 °F 12.0 °F 68% 30.30 in 10.0 mi NNW 13.8 mph 24.2 mph 0.00 in Snow Light Snow
5:35 AM 21.2 °F 10.9 °F 12.2 °F 68% 30.27 in 10.0 mi NW 9.2 mph - 0.00 in   Overcast
5:53 AM 21.0 °F 7.6 °F 12.0 °F 68% 30.32 in 10.0 mi NNW 15.0 mph - 0.00 in   Overcast
6:53 AM 21.0 °F 10.6 °F 12.9 °F 71% 30.35 in 10.0 mi NNW 9.2 mph - N/A   Overcast
7:53 AM 19.9 °F 10.1 °F 10.9 °F 68% 30.38 in 10.0 mi NNW 8.1 mph 16.1 mph N/A   Partly Cloudy
8:53 AM 21.9 °F 8.7 °F 10.9 °F 63% 30.39 in 10.0 mi NW 15.0 mph 26.5 mph N/A   Partly Cloudy
9:53 AM 24.1 °F 12.0 °F 10.9 °F 57% 30.41 in 10.0 mi NNW 13.8 mph 23.0 mph N/A   Partly Cloudy
10:53 AM 27.0 °F 14.3 °F 12.9 °F 56% 30.42 in 10.0 mi NNW 17.3 mph 25.3 mph N/A   Scattered Clouds
11:53 AM 28.0 °F 16.5 °F 12.0 °F 51% 30.42 in 10.0 mi NNW 15.0 mph 23.0 mph N/A   Scattered Clouds
12:53 PM 27.0 °F 15.6 °F 10.9 °F 51% 30.44 in 10.0 mi NW 13.8 mph 25.3 mph N/A   Clear
1:53 PM 27.0 °F 15.6 °F 10.0 °F 49% 30.45 in 10.0 mi NNW 13.8 mph 24.2 mph N/A   Partly Cloudy
2:53 PM 28.0 °F 17.0 °F 10.0 °F 47% 30.48 in 10.0 mi NW 13.8 mph 20.7 mph N/A   Partly Cloudy
3:53 PM 26.1 °F 15.6 °F 10.0 °F 51% 30.51 in 10.0 mi NW 11.5 mph 18.4 mph N/A   Clear
4:53 PM 23.0 °F 12.4 °F 10.0 °F 58% 30.54 in 10.0 mi NW 10.4 mph - N/A   Clear
5:53 PM 21.9 °F 12.5 °F 10.0 °F 60% 30.57 in 10.0 mi NW 8.1 mph - N/A   Mostly Cloudy
6:53 PM 19.9 °F 12.1 °F 10.9 °F 68% 30.60 in 10.0 mi WNW 5.8 mph - N/A   Clear
7:53 PM 19.9 °F 10.1 °F 10.0 °F 65% 30.63 in 10.0 mi NW 8.1 mph - N/A   Clear
8:53 PM 19.9 °F 14.9 °F 9.0 °F 62% 30.65 in 10.0 mi WNW 3.5 mph - N/A   Clear
9:53 PM 18.0 °F 9.8 °F 9.0 °F 68% 30.67 in 10.0 mi WNW 5.8 mph - N/A   Partly Cloudy
10:53 PM 18.0 °F 11.1 °F 9.0 °F 68% 30.68 in 10.0 mi WNW 4.6 mph - N/A   Partly Cloudy
11:53 PM 19.9 °F 9.3 °F 10.0 °F 65% 30.69 in 10.0 mi NW 9.2 mph - N/A   Overcast